Weather History for Rolla, MO

Change the Weather History Date:

Thursday, July 4, 2013

  Actual Average Record
Temperature  
Mean Temperature 71 °F 76 °F  
Max Temperature 84 °F 87 °F 104 °F (1901)
Min Temperature 58 °F 66 °F 54 °F (2014)
Degree Days  
Heating Degree Days 0 0  
Month to date heating degree days 0 0  
Since 1 June heating degree days 17 14  
Since 1 July heating degree days 0 0  
Cooling Degree Days 6 11  
Month to date cooling degree days 13 44  
Year to date cooling degree days 337 386  
Since 1 June cooling degree days 230 279  
Growing Degree Days 20 (Base 50)    
Moisture  
Dew Point 59 °F    
Average Humidity 67    
Maximum Humidity 90    
Minimum Humidity 43    
Precipitation  
Precipitation 0.00 in 0.15 in 1.57 in (1958)
Month to date precipitation 0.01 0.56  
Year to date precipitation 25.10 22.00  
Sea Level Pressure  
Sea Level Pressure 30.03 in    
Wind  
Wind Speed 6 mph (SSE)    
Max Wind Speed 10 mph    
Max Gust Speed 15 mph    
Visibility 10 miles    
Events      
T = Trace of Precipitation, MM = Missing Value Source: NWS Daily Summary

Daily Weather History Graph

Daily Weather History Graph

Search for Another Location

Airport:

Trip Planner

Search our weather history database for the weather conditions in past years. The results will help you decide how hot, cold, wet, or windy it might be!

Date:

Astronomy

Jul. 04, 2013 Rise Set
Actual Time 5:49 AM CDT 8:33 PM CDT
Civil Twilight 5:18 AM CDT 9:04 PM CDT
Nautical Twilight 4:39 AM CDT 9:43 PM CDT
Astronomical Twilight 3:54 AM CDT 10:27 PM CDT
Moon 3:05 AM CDT (7/4) 5:39 PM CDT (7/4)
Length of Visible Light 15h 46m
Length of Day
14h 44m
Waning Crescent, 11% of the Moon is Illuminated
Jul 4
Waning Crescent
Jul 8
New
Jul 15
First Quarter
Jul 22
Full
Jul 29
Last Quarter

Hourly Weather History & Observations

Time (CDT) Temp. Heat Index Dew Point Humidity Pressure Visibility Wind Dir Wind Speed Gust Speed Precip Events Conditions
12:53 AM 62.1 °F - 57.9 °F 86% 30.05 in 10.0 mi South 6.9 mph - N/A   Clear
1:53 AM 63.0 °F - 57.9 °F 84% 30.04 in 10.0 mi South 8.1 mph - N/A   Clear
2:53 AM 63.0 °F - 57.9 °F 84% 30.04 in 10.0 mi South 6.9 mph - N/A   Clear
3:53 AM 62.1 °F - 57.9 °F 86% 30.04 in 10.0 mi South 6.9 mph - N/A   Clear
4:53 AM 60.1 °F - 57.0 °F 90% 30.04 in 10.0 mi South 4.6 mph - N/A   Clear
5:53 AM 59.0 °F - 55.9 °F 90% 30.04 in 10.0 mi SSW 6.9 mph - N/A   Clear
6:53 AM 64.9 °F - 57.9 °F 78% 30.05 in 10.0 mi South 5.8 mph - N/A   Scattered Clouds
7:53 AM 68.0 °F - 57.9 °F 70% 30.06 in 10.0 mi South 5.8 mph - N/A   Clear
8:53 AM 72.0 °F - 60.1 °F 66% 30.07 in 10.0 mi South 6.9 mph - N/A   Clear
9:53 AM 75.0 °F - 60.1 °F 60% 30.07 in 10.0 mi SSW 6.9 mph - N/A   Clear
10:53 AM 78.1 °F - 60.1 °F 54% 30.07 in 10.0 mi Variable 5.8 mph - N/A   Clear
11:53 AM 79.0 °F - 57.9 °F 48% 30.06 in 10.0 mi SSW 4.6 mph - N/A   Clear
12:53 PM 80.1 °F 80.6 °F 57.9 °F 47% 30.06 in 10.0 mi SSE 5.8 mph - N/A   Partly Cloudy
1:53 PM 81.0 °F 81.1 °F 57.9 °F 45% 30.04 in 10.0 mi SW 4.6 mph - N/A   Partly Cloudy
2:53 PM 82.9 °F 82.4 °F 57.0 °F 41% 30.02 in 10.0 mi Calm Calm - N/A   Clear
3:53 PM 82.0 °F 81.7 °F 57.0 °F 42% 30.01 in 10.0 mi SE 3.5 mph - N/A   Partly Cloudy
4:53 PM 82.0 °F 82.1 °F 59.0 °F 45% 30.00 in 10.0 mi ESE 6.9 mph - N/A   Mostly Cloudy
5:53 PM 81.0 °F 81.3 °F 59.0 °F 47% 29.98 in 10.0 mi SE 8.1 mph - N/A   Clear
6:53 PM 80.1 °F 80.9 °F 60.1 °F 50% 29.99 in 10.0 mi ESE 4.6 mph - N/A   Clear
7:53 PM 73.9 °F - 61.0 °F 64% 30.00 in 10.0 mi East 4.6 mph - N/A   Partly Cloudy
8:53 PM 70.0 °F - 61.0 °F 73% 29.99 in 10.0 mi ESE 5.8 mph - N/A   Clear
9:53 PM 68.0 °F - 61.0 °F 78% 30.01 in 10.0 mi ESE 6.9 mph - N/A   Scattered Clouds
10:53 PM 66.9 °F - 61.0 °F 81% 30.02 in 10.0 mi ESE 6.9 mph - N/A   Partly Cloudy
11:53 PM 68.0 °F - 60.1 °F 76% 30.00 in 10.0 mi SE 5.8 mph - N/A   Clear